Flag for U.S.A. Weather past 2 weeks in Grand Rapids, Michigan, U.S.A.

Now
41 °F

Mostly cloudy.


Feels Like: 30 °F
Forecast: 38 / 46 °F
Wind: 26 mph from West

Location: Kent County International Airport

Current Time: Apr 21, 2015 at 10:11:05 AM

Latest Report: Apr 21, 2015 at 8:53 AM


Visibility: 10 mi

Pressure: 29.53 "Hg

Humidity: 67%

Dew point: 31 °F

Location of Grand RapidsLocation

Historic Weather in Grand Rapids — Graph

°F

Grand Rapids temperature yesterday

Maximum temperature yesterday: 55 °F (at 4:53 AM)
Minimum temperature yesterday: 41 °F (at 8:53 PM)
Average temperature yesterday: 48 °F

Past Weeks' High & Low Weather Summary

 TemperatureHumidityPressure
High75 °F (Apr 17, 3:53 PM)100% (Apr 10, 6:53 AM)30.36 "Hg (Apr 10, 6:53 AM)
Low32 °F (Apr 11, 5:53 AM)18% (Apr 18, 6:53 PM)29.15 "Hg (Apr 20, 3:53 AM)
Average50 °F64%29.98 "Hg
* Reported Apr 6 8:53 AM — Apr 21 8:53 AM, Grand Rapids, Weather by CustomWeather, © 2015

Note: Actual official high and low records may vary slightly from our data, if they occured in-between our weather recording intervals... More about our weather records

Advertising

Grand Rapids weather history for previous 24 hours

 ConditionsComfort  
Time TempWeatherWind HumidityBarometerVisibility
8:53 AM
Tue, Apr 21
41 °FMostly cloudy.26 mph67%29.53 "Hg10 mi
7:53 AM40 °FPartly sunny.17 mph70%29.53 "Hg10 mi
6:53 AM40 °FOvercast.20 mph70%29.53 "Hg10 mi
5:53 AM40 °FOvercast.16 mph73%29.53 "Hg10 mi
4:53 AM41 °FOvercast.16 mph70%29.54 "Hg10 mi
3:53 AM41 °FOvercast.18 mph67%29.53 "Hg10 mi
2:53 AM41 °FMostly cloudy.14 mph74%29.54 "Hg10 mi
1:53 AM41 °FMostly cloudy.9 mph70%29.56 "Hg10 mi
12:53 AM41 °FOvercast.16 mph74%29.56 "Hg10 mi
11:53 PM
Mon, Apr 20
41 °FOvercast.12 mph80%29.56 "Hg10 mi
10:53 PM41 °FMostly cloudy.13 mph86%29.56 "Hg10 mi
9:53 PM41 °FLight rain. Overcast.16 mph89%29.55 "Hg9 mi
8:53 PM41 °FLight rain. Mostly cloudy.17 mph93%29.53 "Hg10 mi
7:53 PM42 °FLight rain. Fog.16 mph92%29.51 "Hg6 mi
6:53 PM42 °FLight rain. Mostly cloudy.16 mph96%29.48 "Hg9 mi
5:53 PM42 °FLight rain. Mostly cloudy.23 mph92%29.46 "Hg8 mi
4:53 PM42 °FLight rain. Fog.22 mph96%29.43 "Hg2 mi
3:53 PM44 °FLight rain. Fog.26 mph93%29.39 "Hg2 mi
2:53 PM47 °FLight rain. Fog.26 mph93%29.33 "Hg1 mi
1:53 PM49 °FLow clouds.21 mph93%29.27 "Hg8 mi
12:53 PM50 °FLight rain. Fog.15 mph96%29.25 "Hg1 mi
11:53 AM50 °FFog.17 mph93%29.23 "Hg1 mi
10:53 AM51 °FLight rain. Fog.12 mph96%29.21 "Hg1 mi
Weather by CustomWeather, © 2015

See weather overviewHow to use our weather pages